Flag for U.S.A. Weather past 2 weeks in Annapolis, Maryland, U.S.A.

Now
67 °F

Clear.


Feels Like: 67 °F
Forecast: 63 / 75 °F
Wind: 8 mph from Northwest

Location: Annapolis - United States Naval Academy

Current Time: Jul 29, 2014 at 3:42:13 AM

Latest Report: Jul 29, 2014 at 2:54 AM


Visibility: 10 mi

Pressure: 29.84 "Hg

Humidity: 73%

Dew point: 58 °F

Location of AnnapolisLocation

Historic Weather in Annapolis — Graph

°F

Annapolis temperature yesterday

Maximum temperature yesterday: 84 °F (at 2:54 PM)
Minimum temperature yesterday: 72 °F (at 11:54 PM)
Average temperature yesterday: 79 °F

Past Weeks' High & Low Weather Summary

 TemperatureHumidityPressure
High87 °F (Jul 23, 2:54 PM)94% (Jul 14, 11:54 PM)30.24 "Hg (Jul 14, 11:54 PM)
Low66 °F (Jul 17, 2:54 AM)36% (Jul 18, 4:54 PM)29.58 "Hg (Jul 28, 4:54 AM)
Average76 °F70%29.97 "Hg
* Reported Jul 14 1:54 AM — Jul 29 1:54 AM, Annapolis, Weather by CustomWeather, © 2014

Note: Actual official high and low records may vary slightly from our data, if they occured in-between our weather recording intervals... More about our weather records

Advertising

Annapolis weather history for previous 24 hours

 ConditionsComfort  
Time TempWeatherWind HumidityBarometerVisibility
1:54 AM
Jul 29
68 °FClear.8 mph76%29.83 "Hg10 mi
12:54 AM70 °FPassing clouds.9 mph73%29.81 "Hg10 mi
11:54 PM
Jul 28
72 °FMostly cloudy.7 mph68%29.81 "Hg10 mi
10:54 PM73 °FClear.13 mph66%29.80 "Hg10 mi
9:54 PM74 °FOvercast.13 mph64%29.79 "Hg10 mi
8:54 PM75 °FPassing clouds.13 mph58%29.75 "Hg10 mi
7:54 PM78 °FPassing clouds.9 mph50%29.72 "Hg10 mi
6:54 PM80 °FSunny.14 mph45%29.70 "Hg10 mi
5:54 PM82 °FPassing clouds.15 mph43%29.69 "Hg10 mi
4:54 PM82 °FPassing clouds.16 mph41%29.67 "Hg10 mi
3:54 PM83 °FPassing clouds.12 mph41%29.66 "Hg10 mi
2:54 PM84 °FScattered clouds.15 mph38%29.65 "Hg10 mi
1:54 PM81 °FBroken clouds.9 mph49%29.65 "Hg10 mi
12:54 PM81 °FScattered clouds.12 mph47%29.65 "Hg10 mi
11:54 AM82 °FScattered clouds.12 mph46%29.65 "Hg10 mi
10:54 AM82 °FSunny.10 mph49%29.64 "Hg10 mi
9:54 AM81 °FPassing clouds.12 mph54%29.63 "Hg10 mi
8:54 AM81 °FSunny.12 mph58%29.61 "Hg10 mi
7:54 AM78 °FSunny.7 mph76%29.60 "Hg9 mi
6:54 AM75 °FClear.5 mph88%29.60 "Hg7 mi
5:54 AM75 °FClear.5 mph85%29.59 "Hg9 mi
4:54 AM76 °FClear.No wind85%29.58 "Hg9 mi
3:54 AM77 °FPassing clouds.5 mph85%29.59 "Hg9 mi
Weather by CustomWeather, © 2014

See weather overviewHow to use our weather pages